Location: Haliburton Scout Reserve
(45.0900°N, 78.3200°W)
Time: 06:46:50
(UTC-05:00)

PCSat - Visible Passes

Search period start: 05 March 2024 00:00
Search period end: 15 March 2024 01:00
Orbit: 784 x 792 km, 67.0° (Epoch: 04 March)

Date Brightness Start Highest point End Pass type
(mag) Time Alt. Az. Time Alt. Az. Time Alt. Az.
05 Mar 12.3 05:29:14 10° SSE 05:33:05 20° ESE 05:36:56 10° ENE visible
06 Mar 12.4 04:58:57 10° SE 05:01:45 14° ESE 05:04:33 10° ENE visible
07 Mar 10.0 06:07:24 10° SSW 06:12:46 70° ESE 06:18:10 10° NE visible
08 Mar 10.5 05:36:04 10° S 05:41:16 51° ESE 05:46:30 10° NE visible
09 Mar 11.0 05:04:53 10° S 05:09:48 37° ESE 05:14:45 10° NE visible
10 Mar 11.5 05:33:55 10° SSE 05:38:23 27° ESE 05:42:53 10° NE visible
11 Mar 11.9 05:03:13 10° SSE 05:07:01 20° ESE 05:10:49 10° ENE visible
11 Mar 9.6 06:44:26 10° SW 06:49:49 67° NW 06:55:14 10° NNE visible
12 Mar 12.2 04:32:59 10° SE 04:35:40 14° ESE 04:38:22 10° ENE visible
12 Mar 9.5 06:12:49 10° SSW 06:18:14 88° WNW 06:23:41 10° NNE visible
13 Mar 9.8 05:42:32 17° SSW 05:46:41 69° ESE 05:52:04 10° NE visible
14 Mar 10.3 05:12:27 26° S 05:15:10 50° ESE 05:20:24 10° NE visible
14 Mar 10.5 06:54:00 10° WSW 06:58:45 30° NW 07:03:32 10° NNE visible
